"TOA5","AWS1","CR1000","7964","CR1000.Std.14","CPU:AWS1_114.CR1","64363","TBL110"
"TIMESTAMP","RECORD","Wind_spd_WVc(1)","Wind_spd_WVc(2)","Air_Temp_Avg","Humidity_Avg","SW_upper_Wm2_Avg","Rain_Tot","Press_Avg","Issui_Tot","Depth_cm","SR50A_Raw","Quality","Ground_Temp_Avg(1)","Ground_Temp_Avg(2)","SW_lower_Wm2_Avg","Albedo_Avg","SWC_per(1)","SWC_per(2)","Period(1)","Period(2)"
"TS","RN","","","","","","","","","","","","","","","","","","",""
"","","WVc","WVc","Avg","Avg","Avg","Tot","Avg","Tot","Smp","Smp","Smp","Avg","Avg","Avg","Avg","Smp","Smp","Smp","Smp"
"2017-01-27 00:00:00",272509,0.46,155.2,-7.06,58.2,0,0,869.7948,0,90.1,2.313,184,1.582,2.417,0.07209974,0,51.82,59.5,33.75,35.56
"2017-01-27 00:10:00",272510,0.43,166.4,-7.945,63.64,0,0,869.7379,0,89.9,2.313,190,1.575,2.445,0.1441995,0,51.82,59.5,33.75,35.56
"2017-01-27 00:20:00",272511,0.362,170.6,-7.494,60.66,0,0,869.5123,0,89.9,2.309,189,1.558,2.445,0.5122877,0,51.88,59.5,33.76,35.56
"2017-01-27 00:30:00",272512,0.753,153.1,-6.391,49.17,0,0,869.1558,0,91.1,2.29,214,1.549,2.443,1.369895,0,51.82,59.5,33.75,35.56
"2017-01-27 00:40:00",272513,0.71,137.2,-3.847,26.22,0,0,869.0461,0,90.4,2.289,180,1.547,2.389,2.61077,0,51.82,59.5,33.75,35.56
"2017-01-27 00:50:00",272514,0.818,200.7,-2.621,19.66,0,0,869.181,0,90.1,2.289,181,1.584,2.35,2.371702,0,51.82,59.5,33.75,35.56
"2017-01-27 01:00:00",272515,0.48,152.1,-3.157,26.14,0,0,869.2064,0,90.5,2.29,192,1.593,2.354,0.466751,0,51.82,59.5,33.75,35.56
"2017-01-27 01:10:00",272516,0.603,151,-3.478,25.55,0,0,869.1262,0,90.2,2.292,177,1.605,2.364,0.6109504,0,51.82,59.5,33.75,35.56
"2017-01-27 01:20:00",272517,0.668,135.9,-3.771,28.65,0,0,869.3983,0,90.8,2.286,178,1.609,2.37,0.246657,0,51.82,59.5,33.75,35.56
"2017-01-27 01:30:00",272518,0.532,134.8,-3.022,23.08,0,0,869.5248,0,90.5,2.288,171,1.636,2.373,0.8196602,0,51.82,59.5,33.75,35.56
"2017-01-27 01:40:00",272519,0.695,149.3,-2.452,17.81,0,0,869.3329,0,90.1,2.291,184,1.639,2.38,1.138417,0,51.88,59.5,33.76,35.56
"2017-01-27 01:50:00",272520,0.936,149.8,-2.522,17.91,0,0,869.4426,0,90.4,2.285,219,1.634,2.396,0.7817129,0,51.88,59.5,33.76,35.56
"2017-01-27 02:00:00",272521,0.853,162.4,-2.364,18.3,0,0,869.4258,0,90.3,2.288,190,1.634,2.424,0.6375135,0,51.82,59.5,33.75,35.56
"2017-01-27 02:10:00",272522,0.998,149.3,-2.539,18.08,0,0,869.3061,0,90.5,2.284,188,1.634,2.44,0.314962,0,51.88,59.5,33.76,35.56
"2017-01-27 02:20:00",272523,0.991,146.4,-2.142,15.56,0,0,869.4842,0,90.1,2.288,184,1.634,2.443,0.5084929,0,51.88,59.5,33.76,35.56
"2017-01-27 02:30:00",272524,1.223,147.4,-2.346,16.49,0,0,869.0332,0,89.9,2.291,184,1.623,2.431,0.1935286,0,51.82,59.5,33.75,35.56
"2017-01-27 02:40:00",272525,1.303,153.4,-2.059,14.96,0,0,868.6093,0,90.2,2.286,184,1.598,2.407,0.4932947,0,51.82,59.5,33.75,35.56
"2017-01-27 02:50:00",272526,1.36,165.4,-1.669,13.69,0,0,868.5085,0,89.9,2.288,192,1.572,2.385,0.557777,0,51.82,59.5,33.75,35.56
"2017-01-27 03:00:00",272527,1.184,160.2,-1.388,12.88,0,0,868.4951,0,90,2.285,193,1.538,2.335,0.5083874,0,51.82,59.5,33.75,35.56
"2017-01-27 03:10:00",272528,0.634,158.3,-1.375,13.72,0,0,868.6962,0,89.7,2.29,194,1.521,2.301,0.1631278,0,51.88,59.5,33.76,35.56
"2017-01-27 03:20:00",272529,0.628,150,-2.005,17.71,0,0,868.7475,0,90.1,2.288,193,1.525,2.295,0.01138051,0,51.82,59.5,33.75,35.56
"2017-01-27 03:30:00",272530,0.484,127.6,-2.623,22.93,0,0,868.8378,0,89.8,2.296,193,1.516,2.299,0.01138038,0,51.88,59.5,33.76,35.56
"2017-01-27 03:40:00",272531,1.061,130.9,-4.086,32.23,0,0,868.8251,0,89.9,2.3,192,1.515,2.315,0,0,51.88,59.5,33.76,35.56
"2017-01-27 03:50:00",272532,1.14,126.5,-4.443,30.84,0,0,868.9011,0,89.7,2.302,193,1.538,2.324,0,0,51.82,59.5,33.75,35.56
"2017-01-27 04:00:00",272533,1.033,140.9,-4.078,28.48,0,0,868.9811,0,89.8,2.299,192,1.541,2.324,0.1365635,0,51.88,59.5,33.76,35.56
"2017-01-27 04:10:00",272534,1.161,150.4,-3.879,30.44,0,0,868.7513,0,90,2.296,193,1.538,2.324,0.1782912,0,51.82,59.5,33.75,35.56
"2017-01-27 04:20:00",272535,1.415,150.3,-3.676,32.44,0,0,868.6902,0,89.8,2.297,188,1.53,2.324,0.1972583,0,51.88,59.5,33.76,35.56
"2017-01-27 04:30:00",272536,1.25,149.4,-3.5,33.91,0,0,868.6586,0,89.4,2.301,192,1.533,2.323,0.1024226,0,51.88,59.5,33.76,35.56
"2017-01-27 04:40:00",272537,1.225,151.1,-3.562,34.14,0,0,868.6776,0,89.6,2.299,190,1.534,2.324,0.07207515,0,51.82,59.5,33.75,35.56
"2017-01-27 04:50:00",272538,1.111,149.1,-3.307,31.84,0,0,868.6691,0,89.6,2.297,190,1.526,2.324,0.1403569,0,51.82,59.5,33.75,35.56
"2017-01-27 05:00:00",272539,1.221,153.6,-3.253,32.5,0,0,868.4414,0,89.6,2.299,188,1.516,2.321,0.1024226,0,51.88,59.5,33.76,35.56
"2017-01-27 05:10:00",272540,1.305,140.1,-3.44,33.7,0,0,868.4414,0,89.3,2.302,192,1.514,2.321,0.01517372,0,51.82,59.5,33.75,35.56
"2017-01-27 05:20:00",272541,1.225,136.5,-3.625,34.79,0,0,868.6586,0,89.4,2.302,193,1.509,2.323,0.01896715,0,51.88,59.5,33.76,35.56
"2017-01-27 05:30:00",272542,1.422,126.5,-3.742,35.63,0,0,868.3275,0,89.4,2.302,189,1.507,2.322,0.01517372,0,51.82,59.5,33.75,35.56
"2017-01-27 05:40:00",272543,1.21,115.5,-3.978,36.94,0,0,868.1884,0,89.5,2.302,193,1.512,2.321,0,0,51.82,59.5,33.75,35.56
"2017-01-27 05:50:00",272544,1.152,125.6,-3.538,31.71,0,0,868.1799,0,88.8,2.307,190,1.519,2.324,0.1896715,0,51.82,59.5,33.75,35.56
"2017-01-27 06:00:00",272545,1.067,115.6,-3.597,33.56,0,0,868.1378,0,89.4,2.3,194,1.529,2.324,0.1024226,0,51.88,59.5,33.76,35.56
"2017-01-27 06:10:00",272546,1.159,124.7,-3.352,33.02,0,0,867.9965,0,89.4,2.299,193,1.512,2.324,0.1213897,0,51.82,59.5,33.75,35.56
"2017-01-27 06:20:00",272547,1.285,131.8,-3.071,34.82,0,0,867.9649,0,89.3,2.301,194,1.515,2.323,0.2503663,0,51.82,59.5,33.75,35.56
"2017-01-27 06:30:00",272548,1.338,140.1,-3.048,39.31,0,0,868.0092,0,89.3,2.3,190,1.506,2.314,0.1138029,0,51.82,59.5,33.75,35.56
"2017-01-27 06:40:00",272549,1.034,126.1,-3.15,44.78,0,0,868.0598,0,89,2.304,193,1.51,2.316,0.04552115,0,51.88,59.56,33.76,35.58
"2017-01-27 06:50:00",272550,1.426,144.9,-3.235,53.42,0,0,868.3718,0,89,2.304,193,1.509,2.313,0.3641692,0,51.82,59.5,33.75,35.56
"2017-01-27 07:00:00",272551,0.805,142.5,-3.327,56.04,0.1770442,0,868.3929,0,88.9,2.305,188,1.516,2.31,1.05078,1.125,51.82,59.5,33.75,35.56
"2017-01-27 07:10:00",272552,0.916,142.9,-3.26,60.16,4.197915,0,868.6058,0,88.9,2.305,186,1.533,2.309,3.478575,0.91,51.82,59.5,33.75,35.56
"2017-01-27 07:20:00",272553,1.052,151.1,-3.214,63.46,7.549952,0,868.6902,0,88.8,2.305,178,1.532,2.302,5.261487,0.701,51.82,59.5,33.75,35.56
"2017-01-27 07:30:00",272554,1.509,165.7,-3.086,70.72,12.69604,0,868.861,0,88.9,2.304,178,1.576,2.292,8.250709,0.651,51.88,59.5,33.76,35.56
"2017-01-27 07:40:00",272555,0.945,154.2,-2.903,73.64,17.37787,0,868.7703,0,88.7,2.305,178,1.57,2.282,10.93266,0.629,51.88,59.5,33.76,35.56
"2017-01-27 07:50:00",272556,1.063,166.3,-2.784,74.74,24.23539,0,868.9263,0,88.7,2.305,178,1.572,2.282,15.23062,0.629,51.82,59.5,33.75,35.56
"2017-01-27 08:00:00",272557,1.123,135.2,-2.638,75,29.47196,0,868.9305,0,88.7,2.304,179,1.586,2.281,18.34882,0.623,51.82,59.5,33.75,35.56
"2017-01-27 08:10:00",272558,0.739,148.3,-2.545,76.17,34.29937,0,869.1688,0,88.6,2.305,177,1.585,2.278,21.61117,0.63,51.82,59.5,33.75,35.56
"2017-01-27 08:20:00",272559,1.342,142,-2.367,76.93,66.45454,0,868.9748,0,88.4,2.305,178,1.567,2.265,41.3332,0.622,51.82,59.5,33.75,35.56
"2017-01-27 08:30:00",272560,1.358,144.3,-2.167,77.77,63.8146,0,868.8799,0,88.5,2.304,179,1.546,2.275,39.70961,0.622,51.82,59.5,33.75,35.56
"2017-01-27 08:40:00",272561,1.283,143.1,-2.127,78.87,48.70683,0,868.7451,0,88.6,2.303,186,1.546,2.318,30.32467,0.623,51.88,59.5,33.76,35.56
"2017-01-27 08:50:00",272562,1.431,149.9,-1.908,79.66,57.9328,0,868.6691,0,88.5,2.303,182,1.546,2.324,36.29932,0.626,51.82,59.5,33.75,35.56
"2017-01-27 09:00:00",272563,1.275,144.3,-1.789,80,86.41724,0,868.6712,0,88.4,2.303,182,1.546,2.325,53.55943,0.62,51.88,59.5,33.76,35.56
"2017-01-27 09:10:00",272564,1.189,146.3,-1.568,79.61,119.1269,0,868.6229,0,88.3,2.303,178,1.558,2.327,73.19405,0.615,51.82,59.56,33.75,35.58
"2017-01-27 09:20:00",272565,1.081,137,-1.353,78.78,111.1253,0,868.4952,0,88.1,2.304,178,1.561,2.326,67.72961,0.609,51.82,59.5,33.75,35.56
"2017-01-27 09:30:00",272566,0.845,82.4,-1.146,78.84,138.7309,0,868.5328,0,88.1,2.303,178,1.54,2.347,84.43017,0.608,51.82,59.5,33.75,35.56
"2017-01-27 09:40:00",272567,0.882,113,-0.982,78.45,175.9247,0,868.524,0,88.2,2.301,178,1.5,2.333,108.661,0.618,51.82,59.5,33.75,35.56
"2017-01-27 09:50:00",272568,1.449,129.4,-0.676,76.14,171.4542,0,868.4329,0,88.2,2.301,178,1.476,2.278,105.9938,0.617,51.82,59.5,33.75,35.56
"2017-01-27 10:00:00",272569,1.289,135.7,-0.581,75.73,130.1061,0,868.4301,0,88.1,2.302,177,1.465,2.243,80.9528,0.62,51.82,59.5,33.75,35.56
"2017-01-27 10:10:00",272570,1.213,125,-0.751,77.45,121.8207,0,868.2819,0,88,2.303,177,1.476,2.24,77.07945,0.634,51.82,59.5,33.75,35.56
"2017-01-27 10:20:00",272571,1.197,118.9,-0.606,76.49,165.2442,0,868.0057,0,87.9,2.303,177,1.512,2.239,102.8694,0.622,51.82,59.5,33.75,35.56
"2017-01-27 10:30:00",272572,1.079,115.8,-0.386,75.65,211.3029,0,867.8771,0,87.9,2.302,176,1.541,2.254,130.9386,0.62,51.88,59.5,33.76,35.56
"2017-01-27 10:40:00",272573,0.977,64.93,-0.115,74.37,235.3648,0,867.7928,0,87.9,2.301,177,1.535,2.297,145.9024,0.62,51.82,59.5,33.75,35.56
"2017-01-27 10:50:00",272574,0.956,45.28,0.092,73.97,200.6445,0,867.8117,0,87.9,2.301,181,1.498,2.322,123.6236,0.616,51.82,59.5,33.75,35.56
"2017-01-27 11:00:00",272575,1.158,83.4,0.104,73.39,189.4316,0,867.8117,0,87.8,2.302,177,1.473,2.303,116.9987,0.617,51.88,59.5,33.76,35.56
"2017-01-27 11:10:00",272576,1.159,14.95,0.249,72.5,240.5117,0,867.66,0,87.6,2.302,177,1.504,2.275,147.8583,0.615,51.82,59.5,33.75,35.56
"2017-01-27 11:20:00",272577,0.971,93.5,0.342,72.3,193.9976,0,867.5553,0,87.7,2.302,185,1.52,2.234,118.7016,0.612,51.82,59.5,33.75,35.56
"2017-01-27 11:30:00",272578,1.179,120.5,0.384,71.82,268.829,0,867.3927,0,87.7,2.301,189,1.507,2.203,167.1153,0.62,51.82,59.5,33.75,35.56
"2017-01-27 11:40:00",272579,1.271,111,0.662,70.2,314.7343,0,867.0187,0,87.6,2.301,180,1.488,2.181,202.4254,0.639,51.82,59.5,33.75,35.56
"2017-01-27 11:50:00",272580,1.254,88.7,0.685,68.81,241.5722,0,866.9187,0,87.5,2.303,176,1.473,2.199,148.1449,0.612,51.82,59.5,33.75,35.56
"2017-01-27 12:00:00",272581,0.694,40.39,0.522,70.74,212.4928,0,866.8968,0,87.5,2.303,181,1.478,2.216,130.7281,0.614,51.82,59.5,33.75,35.56
"2017-01-27 12:10:00",272582,0.988,65.39,0.612,69.44,226.9018,0,866.7381,0,87.3,2.304,181,1.497,2.266,138.1517,0.607,51.82,59.5,33.75,35.56
"2017-01-27 12:20:00",272583,1.184,30.01,0.274,70.73,88.28909,0,866.5208,0,87.4,2.306,176,1.511,2.272,55.70285,0.63,51.88,59.5,33.76,35.56
"2017-01-27 12:30:00",272584,0.929,129.1,-0.006,70.9,73.6749,0,866.3459,0,87.3,2.307,176,1.467,2.23,47.10502,0.64,51.82,59.5,33.75,35.56
"2017-01-27 12:40:00",272585,0.881,76.27,-0.031,72.13,68.35139,0,866.3776,0,87.4,2.307,180,1.462,2.207,43.9472,0.643,51.82,59.5,33.75,35.56
"2017-01-27 12:50:00",272586,0.914,113.4,-0.136,73.31,86.84576,0,866.1921,0,87.4,2.307,176,1.456,2.163,55.4031,0.638,51.82,59.5,33.75,35.56
"2017-01-27 13:00:00",272587,0.833,59.29,-0.317,75.44,75.5148,0,866.0004,0,87.3,2.309,176,1.459,2.156,48.43176,0.641,51.88,59.5,33.76,35.56
"2017-01-27 13:10:00",272588,0.933,80.4,-0.383,76,83.46456,0,865.7877,0,87.2,2.309,175,1.457,2.148,53.09827,0.636,51.82,59.5,33.75,35.56
"2017-01-27 13:20:00",272589,0.714,93.1,-0.28,76.15,126.2092,0,865.6759,0,87.1,2.309,177,1.455,2.149,78.97075,0.629,51.88,59.5,33.76,35.56
"2017-01-27 13:30:00",272590,0.997,94.1,-0.157,74.55,79.63908,0,865.5116,0,87.1,2.31,172,1.45,2.15,50.69868,0.636,51.88,59.5,33.76,35.56
"2017-01-27 13:40:00",272591,0.831,95.6,-0.225,76.68,71.80727,0,865.5664,0,87,2.311,185,1.45,2.15,46.00941,0.641,51.82,59.5,33.75,35.56
"2017-01-27 13:50:00",272592,0.928,77.25,-0.42,78.42,54.38623,0,865.6549,0,86.9,2.313,189,1.446,2.156,35.63768,0.658,51.82,59.5,33.75,35.56
"2017-01-27 14:00:00",272593,0.574,91,-0.493,80.6,66.10249,0,865.638,0,86.7,2.316,178,1.446,2.16,42.94262,0.649,51.82,59.5,33.75,35.56
"2017-01-27 14:10:00",272594,0.777,104.6,-0.709,81.9,44.71835,0,865.5601,0,86.5,2.318,195,1.442,2.183,29.22358,0.653,51.82,59.5,33.75,35.56
"2017-01-27 14:20:00",272595,0.937,132.8,-0.792,82.9,55.98247,0,865.5052,0,86.3,2.321,195,1.406,2.207,36.98721,0.661,51.82,59.5,33.75,35.56
"2017-01-27 14:30:00",272596,0.684,107.8,-0.903,85.2,50.49391,0,865.48,0,86,2.324,190,1.402,2.221,34.1782,0.678,51.82,59.5,33.75,35.56
"2017-01-27 14:40:00",272597,0.71,94.4,-1.093,90.2,42.31219,0,865.5011,0,86.8,2.317,174,1.391,2.225,30.67926,0.727,51.82,59.5,33.75,35.56
"2017-01-27 14:50:00",272598,0.911,132.8,-1.22,94.1,34.39389,0,865.5558,0,86.8,2.317,179,1.393,2.23,26.52071,0.773,51.82,59.5,33.75,35.56
"2017-01-27 15:00:00",272599,0.645,105.6,-1.319,98.5,27.2226,0,865.6106,0,86.7,2.319,186,1.433,2.233,22.55549,0.831,51.82,59.5,33.75,35.56
"2017-01-27 15:10:00",272600,0.753,140.7,-1.419,100,26.51491,0,865.5179,0,86.9,2.317,188,1.443,2.233,23.84058,0.895,51.82,59.5,33.75,35.56
"2017-01-27 15:20:00",272601,0.766,129,-1.395,100,26.53063,0,865.4758,0,86.9,2.317,189,1.449,2.233,24.26516,0.913,51.88,59.5,33.76,35.56
"2017-01-27 15:30:00",272602,0.979,136.8,-1.375,100,21.74977,0,865.44,0,86.6,2.32,174,1.449,2.233,20.50844,0.944,51.82,59.5,33.75,35.56
"2017-01-27 15:40:00",272603,0.815,138.9,-1.327,100,14.71227,0,865.4105,0,86.6,2.32,177,1.456,2.235,13.99967,0.95,51.82,59.56,33.75,35.58
"2017-01-27 15:50:00",272604,1.04,131.1,-1.296,99.8,14.84207,0,865.4716,0,86.3,2.322,191,1.458,2.236,14.28405,0.963,51.82,59.5,33.75,35.56
"2017-01-27 16:00:00",272605,0.924,116.4,-1.3,99.5,10.20267,0,865.5875,0,86.3,2.323,186,1.458,2.236,9.85248,0.961,51.82,59.5,33.75,35.56
"2017-01-27 16:10:00",272606,0.797,107.2,-1.272,99.7,9.270992,0,865.6886,0,86.2,2.324,190,1.461,2.238,9.01861,0.973,51.82,59.5,33.75,35.56
"2017-01-27 16:20:00",272607,0.808,94.1,-1.294,100,6.275311,0,865.7581,0,86,2.325,194,1.473,2.247,6.247732,0.997,51.82,59.5,33.75,35.56
"2017-01-27 16:30:00",272608,0.662,110.3,-1.302,100,5.949242,0,865.9026,0,86.6,2.32,195,1.485,2.258,5.739991,0.965,51.82,59.5,33.75,35.56
"2017-01-27 16:40:00",272609,0.669,72.55,-1.311,100,3.822104,0,865.8853,0,86.8,2.318,192,1.494,2.267,3.72315,0.976,51.82,59.5,33.75,35.56
"2017-01-27 16:50:00",272610,0.721,63.87,-1.346,100,1.741997,0,865.9915,0,87.1,2.315,176,1.498,2.269,1.81611,1.053,51.82,59.5,33.75,35.56
"2017-01-27 17:00:00",272611,0.554,75.82,-1.405,100,0.7786081,0,866.0202,0,86.4,2.322,190,1.504,2.27,0.7810587,1.036,51.82,59.5,33.75,35.56
"2017-01-27 17:10:00",272612,0.622,45.81,-1.488,100,0.3971694,0,866.0193,0,87,2.316,195,1.504,2.235,0.424654,1.012,51.88,59.5,33.76,35.56
"2017-01-27 17:20:00",272613,0.485,48.74,-1.495,100,0,0,866.0296,0,86.9,2.317,214,1.504,2.242,0.01137458,0,51.82,59.5,33.75,35.56
"2017-01-27 17:30:00",272614,0.408,49.78,-1.583,100,0,0,866.1379,0,87.6,2.311,226,1.516,2.221,0,0,51.88,59.5,33.76,35.56
"2017-01-27 17:40:00",272615,0.284,52.46,-1.57,100,0,0,866.3123,0,87.6,2.311,188,1.522,2.222,0,0,51.82,59.5,33.75,35.56
"2017-01-27 17:50:00",272616,0.24,76.54,-1.588,100,0,0,866.3265,0,87.6,2.311,190,1.527,2.223,0,0,51.82,59.5,33.75,35.56
"2017-01-27 18:00:00",272617,0.029,43.88,-1.599,100,0,0,866.5353,0.5,87.8,2.309,190,1.53,2.23,0,0,51.82,59.56,33.75,35.58
"2017-01-27 18:10:00",272618,0.094,45.83,-1.599,100,0,0,866.5749,0,87.8,2.309,197,1.531,2.233,0,0,51.82,59.5,33.75,35.56
"2017-01-27 18:20:00",272619,0.127,65.65,-1.635,100,0,0,866.6771,0,88,2.307,177,1.536,2.237,0,0,51.82,59.5,33.75,35.56
"2017-01-27 18:30:00",272620,0.068,330.5,-1.623,100,0,0,866.7846,0,88.1,2.306,192,1.539,2.241,0,0,51.82,59.56,33.75,35.58
"2017-01-27 18:40:00",272621,0.03,277.4,-1.603,100,0,0,866.8407,0.5,88,2.307,176,1.544,2.238,0,0,51.82,59.56,33.75,35.58
"2017-01-27 18:50:00",272622,0.073,6.992,-1.65,100,0,0,866.8918,0,88.2,2.305,191,1.544,2.241,0,0,51.82,59.5,33.75,35.56
"2017-01-27 19:00:00",272623,0.2,89.6,-1.714,100,0,0,866.96,0,88.3,2.305,187,1.534,2.242,0,0,51.82,59.5,33.75,35.56
"2017-01-27 19:10:00",272624,0.2,128.2,-1.743,100,0,0,866.9896,0,88.4,2.304,185,1.528,2.245,0,0,51.82,59.5,33.75,35.56
"2017-01-27 19:20:00",272625,0.152,264.1,-1.783,100,0,0,867.2952,0.5,88.4,2.304,189,1.535,2.242,0,0,51.82,59.5,33.75,35.56
"2017-01-27 19:30:00",272626,0.107,305.4,-1.822,100,0,0,867.4153,0.5,88.9,2.299,191,1.527,2.243,0,0,51.82,59.5,33.75,35.56
"2017-01-27 19:40:00",272627,0.267,272.9,-1.834,100,0,0,867.5924,0,88.7,2.301,189,1.524,2.248,0,0,51.82,59.56,33.75,35.58
"2017-01-27 19:50:00",272628,0.193,287,-1.909,100,0,0,867.6788,0.5,88.9,2.299,192,1.537,2.25,0,0,51.82,59.5,33.75,35.56
"2017-01-27 20:00:00",272629,0.827,323.1,-1.977,100,0.04719562,0,867.9128,0,89.1,2.298,183,1.527,2.255,0,0,51.88,59.56,33.76,35.58
"2017-01-27 20:10:00",272630,1.171,300.6,-2.186,100,0.003932969,0,868.0941,0.5,89.1,2.299,177,1.495,2.272,0,0,51.82,59.56,33.75,35.58
"2017-01-27 20:20:00",272631,1.126,336.6,-2.471,100,0,0,868.0961,0,88.9,2.301,196,1.488,2.301,0,0,51.82,59.5,33.75,35.56
"2017-01-27 20:30:00",272632,0.933,330.8,-2.606,99.5,0,0,868.111,0,89,2.301,196,1.479,2.316,0,0,51.88,59.56,33.76,35.58
"2017-01-27 20:40:00",272633,0.962,307.9,-2.64,94.2,0,0,868.2626,0,88.6,2.305,197,1.464,2.32,0,0,51.82,59.5,33.75,35.56
"2017-01-27 20:50:00",272634,0.692,341,-2.681,90.9,0,0,868.349,0,88.4,2.307,198,1.459,2.32,0.00379213,0,51.88,59.56,33.76,35.58
"2017-01-27 21:00:00",272635,0.707,304.3,-2.612,87.2,0,0,868.349,0,88.6,2.305,192,1.462,2.321,0.07963474,0,51.82,59.56,33.75,35.58
"2017-01-27 21:10:00",272636,0.692,349.3,-2.626,85.3,0,0,868.3553,0,88.4,2.307,196,1.472,2.318,0.07963474,0,51.88,59.5,33.76,35.56
"2017-01-27 21:20:00",272637,0.602,13.38,-2.746,85.8,0,0,868.3511,0,88.4,2.307,196,1.475,2.315,0,0,51.88,59.56,33.76,35.58
"2017-01-27 21:30:00",272638,0.662,355.2,-2.719,84.1,0,0,868.368,0,88.4,2.308,196,1.486,2.314,0.04550556,0,51.82,59.5,33.75,35.56
"2017-01-27 21:40:00",272639,0.331,2.45,-2.911,85,0,0,868.349,0,88.4,2.309,191,1.5,2.29,0,0,51.82,59.56,33.75,35.58
"2017-01-27 21:50:00",272640,0.381,1.839,-3.086,84.2,0,0,868.349,0,88.4,2.309,196,1.52,2.26,0,0,51.82,59.56,33.75,35.58
"2017-01-27 22:00:00",272641,0.394,14.76,-3.236,83.7,0,0,868.3533,0,88.2,2.312,196,1.497,2.238,0,0,51.88,59.56,33.76,35.58
"2017-01-27 22:10:00",272642,0.33,16.21,-3.583,85.5,0,0,868.3785,0,88.4,2.312,196,1.482,2.236,0,0,51.82,59.56,33.75,35.58
"2017-01-27 22:20:00",272643,0.106,345.6,-3.919,86.9,0,0,868.3785,0,88,2.318,186,1.459,2.236,0,0,51.88,59.56,33.76,35.58
"2017-01-27 22:30:00",272644,0.083,144.4,-4.57,91.8,0,0,868.349,0.5,88,2.32,190,1.459,2.24,0,0,51.88,59.56,33.76,35.58
"2017-01-27 22:40:00",272645,0.068,111.5,-4.861,93.8,0,0,868.349,0,88,2.32,195,1.472,2.256,0,0,51.82,59.56,33.75,35.58
"2017-01-27 22:50:00",272646,0.181,60.99,-4.709,90.4,0,0,868.349,0,87.7,2.323,190,1.499,2.246,0,0,51.82,59.56,33.75,35.58
"2017-01-27 23:00:00",272647,0.145,41.7,-4.385,88,0,0,868.349,0,88,2.32,196,1.5,2.221,0.04550556,0,51.82,59.56,33.75,35.58
"2017-01-27 23:10:00",272648,0.161,55.14,-4.548,89,0,0,868.3027,0,87.8,2.321,191,1.5,2.233,0.04171343,0,51.82,59.56,33.75,35.58
"2017-01-27 23:20:00",272649,0.358,30.91,-4.261,86.5,0,0,868.349,0,87.6,2.321,192,1.498,2.233,0.2426963,0,51.82,59.56,33.75,35.58
"2017-01-27 23:30:00",272650,0.527,0.013,-3.899,83.6,0,0,868.387,0,87.8,2.318,178,1.5,2.234,0.4398871,0,51.82,59.56,33.75,35.58
"2017-01-27 23:40:00",272651,0.44,330.4,-3.608,79.89,0,0,868.4944,0,87.6,2.321,182,1.5,2.233,0.2389053,0,51.88,59.56,33.76,35.58
"2017-01-27 23:50:00",272652,0.187,91.4,-4.102,84.3,0,0,868.5008,0,88.1,2.316,186,1.508,2.242,0,0,51.82,59.56,33.75,35.58
